Portland, OR

4:42 AM PDT on May 25, 2018 (GMT -0700)
Portland International

Weather History for KPDX - April, 2013

Change the Weather History Date:

Wednesday, April 10, 2013

  Actual Average Record
Temperature  
Mean Temperature 52 °F 51 °F  
Max Temperature 59 °F 60 °F 79 °F (2004)
Min Temperature 45 °F 42 °F 31 °F (1954)
Degree Days  
Heating Degree Days 13 14  
Month to date heating degree days 119 142  
Since 1 July heating degree days 3514 3722  
Cooling Degree Days 0 0  
Month to date cooling degree days 0 0  
Year to date cooling degree days 0 0  
Growing Degree Days 4 (Base 50)    
Moisture  
Dew Point 45 °F    
Average Humidity 72    
Maximum Humidity 86    
Minimum Humidity 57    
Precipitation  
Precipitation 0.14 in 0.10 in 0.42 in (1999)
Month to date precipitation 1.30 0.99  
Year to date precipitation 7.51 13.21  
Snow  
Snow 0.00 in - 0.00 in (2016)
Month to date snowfall 0.0  
Since 1 July snowfall 0.0  
Snow Depth 0.00 in    
Sea Level Pressure  
Sea Level Pressure 30.22 in    
Wind  
Wind Speed 12 mph (WSW)    
Max Wind Speed 23 mph    
Max Gust Speed 29 mph    
Visibility 10 miles    
Events Rain    
T = Trace of Precipitation, MM = Missing Value Source: NWS Daily Summary

Daily Weather History Graph

Daily Weather History Graph

Search for Another Location

Airport or City:

Astronomy

Apr. 10, 2013 Rise Set
Actual Time 6:33 AM PDT 7:50 PM PDT
Civil Twilight 6:02 AM PDT 8:21 PM PDT
Nautical Twilight 5:25 AM PDT 8:58 PM PDT
Astronomical Twilight 4:46 AM PDT 9:37 PM PDT
Moon 6:30 AM PDT (4/10) 8:35 PM PDT (4/10)
Length of Visible Light 14h 18m
Length of Day
13h 17m
New Moon, 0% of the Moon is Illuminated
Apr 10
New Moon
Apr 18
First Quarter
Apr 25
Full
May 2
Last Quarter
May 9
New

Hourly Weather History & Observations

Time (PDT) Temp. Dew Point Humidity Pressure Visibility Wind Dir Wind Speed Gust Speed Precip Events Conditions
12:53 AM 52.0 °F 46.0 °F 80% 30.25 in 10.0 mi ESE 5.8 mph - N/A   Overcast
1:53 AM 52.0 °F 46.0 °F 80% 30.24 in 10.0 mi ESE 8.1 mph - N/A   Overcast
2:53 AM 52.0 °F 46.0 °F 80% 30.22 in 10.0 mi ESE 9.2 mph - N/A   Overcast
3:53 AM 52.0 °F 46.0 °F 80% 30.21 in 10.0 mi East 8.1 mph - N/A   Overcast
4:53 AM 53.1 °F 46.0 °F 77% 30.20 in 10.0 mi South 8.1 mph - N/A   Overcast
5:53 AM 54.0 °F 45.0 °F 72% 30.18 in 10.0 mi South 9.2 mph - N/A   Overcast
6:53 AM 54.0 °F 44.1 °F 69% 30.17 in 10.0 mi South 12.7 mph - N/A   Overcast
7:53 AM 53.1 °F 44.1 °F 71% 30.15 in 10.0 mi SSW 15.0 mph 24.2 mph N/A   Overcast
8:53 AM 54.0 °F 45.0 °F 72% 30.12 in 10.0 mi South 16.1 mph 24.2 mph N/A   Overcast
9:04 AM 53.6 °F 44.6 °F 72% 30.13 in 10.0 mi SSW 11.5 mph 19.6 mph N/A   Overcast
9:53 AM 51.8 °F 46.4 °F 82% 30.13 in 4.0 mi SSW 16.1 mph 23.0 mph N/A Rain Light Rain
10:18 AM 51.8 °F 48.2 °F 88% 30.14 in 10.0 mi South 11.5 mph - 0.03 in Rain Light Rain
10:29 AM 51.8 °F 48.2 °F 88% 30.14 in 10.0 mi South 8.1 mph - 0.03 in Rain Light Rain
10:53 AM 53.6 °F 48.2 °F 82% 30.16 in 10.0 mi SW 10.4 mph - N/A   Overcast
11:13 AM 53.6 °F 50.0 °F 88% 30.16 in 10.0 mi SSW 16.1 mph 21.9 mph N/A   Overcast
11:53 AM 55.9 °F 52.0 °F 87% 30.16 in 10.0 mi SSW 16.1 mph 23.0 mph N/A   Overcast
12:53 PM 55.0 °F 53.1 °F 93% 30.19 in 3.0 mi WNW 9.2 mph - 0.11 in Rain Light Rain
1:18 PM 57.2 °F 51.8 °F 82% 30.19 in 10.0 mi NW 15.0 mph 20.7 mph 0.00 in   Mostly Cloudy
1:53 PM 57.9 °F 46.9 °F 67% 30.22 in 10.0 mi NW 16.1 mph 28.8 mph 0.00 in   Scattered Clouds
2:53 PM 57.9 °F 44.1 °F 60% 30.26 in 10.0 mi NW 18.4 mph 24.2 mph N/A   Partly Cloudy
3:53 PM 57.9 °F 42.1 °F 56% 30.25 in 10.0 mi NW 16.1 mph - N/A   Partly Cloudy
4:53 PM 57.9 °F 42.1 °F 56% 30.24 in 10.0 mi NW 13.8 mph - N/A   Partly Cloudy
5:53 PM 55.9 °F 41.0 °F 57% 30.25 in 10.0 mi NW 16.1 mph 23.0 mph N/A   Scattered Clouds
6:53 PM 53.1 °F 39.0 °F 59% 30.27 in 10.0 mi NW 13.8 mph 21.9 mph N/A   Scattered Clouds
7:53 PM 51.1 °F 37.9 °F 61% 30.29 in 10.0 mi NW 11.5 mph 23.0 mph N/A   Mostly Cloudy
8:53 PM 51.1 °F 37.9 °F 61% 30.31 in 10.0 mi West 8.1 mph - N/A   Mostly Cloudy
9:53 PM 50.0 °F 37.0 °F 61% 30.34 in 10.0 mi WNW 11.5 mph - N/A   Mostly Cloudy
10:53 PM 50.0 °F 37.9 °F 63% 30.35 in 10.0 mi West 6.9 mph - N/A   Overcast
11:53 PM 48.9 °F 39.0 °F 69% 30.36 in 10.0 mi WNW 5.8 mph - 0.00 in Rain Light Rain